This is the latest recevied weather packets stored in our database for station/object N7IGG. If no packets are shown the sender has not sent any weather packets the latest 10 day(s).
| Time | Temp. | Humidity | Pressure | Rain* | Wind** | Luminosity | Snow |
|---|---|---|---|---|---|---|---|
| 1777315793 | 11.11° C | 86% | 1018.5 hPa | 0 mm | - | 166 W/m² | - |
| 1777315491 | 10.56° C | 87% | 1018.6 hPa | 0 mm | - | 246 W/m² | - |
| 1777315189 | 10.56° C | 86% | 1018.6 hPa | 0 mm | - | 172 W/m² | - |
| 1777314885 | 10.56° C | 86% | 1018.4 hPa | 0 mm | - | 120 W/m² | - |
| 1777314581 | 10.56° C | 86% | 1018.5 hPa | 0 mm | - | 131 W/m² | - |
| 1777314278 | 10.56° C | 85% | 1018.4 hPa | 0 mm | - | 120 W/m² | - |
| 1777313975 | 11.11° C | 84% | 1018.4 hPa | 0 mm | - | 98 W/m² | - |
| 1777313672 | 11.11° C | 84% | 1018.2 hPa | 0 mm | - | 98 W/m² | - |
| 1777313370 | 11.11° C | 83% | 1018.2 hPa | 0 mm | - | 91 W/m² | - |
| 1777313067 | 11.11° C | 83% | 1018.2 hPa | 0 mm | - | 98 W/m² | - |
| 1777312762 | 11.11° C | 83% | 1018.1 hPa | 0 mm | - | 127 W/m² | - |
| 1777312460 | 11.11° C | 83% | 1018.1 hPa | 0 mm | - | 135 W/m² | - |
| 1777312156 | 11.11° C | 84% | 1018.1 hPa | 0 mm | - | 108 W/m² | - |
| 1777311854 | 11.11° C | 84% | 1017.9 hPa | 0 mm | - | 141 W/m² | - |
| 1777311551 | 10.56° C | 84% | 1018.1 hPa | 0 mm | - | 117 W/m² | - |
| 1777311249 | 10.56° C | 84% | 1018.2 hPa | 0 mm | - | 114 W/m² | - |
| 1777310946 | 11.11° C | 84% | 1018.1 hPa | 0 mm | - | 144 W/m² | - |
| 1777310644 | 10.56° C | 84% | 1017.9 hPa | 0 mm | - | 166 W/m² | - |
| 1777310341 | 10.56° C | 84% | 1018 hPa | 0 mm | - | 132 W/m² | - |
| 1777310037 | 10.56° C | 85% | 1018.1 hPa | 0 mm | - | 114 W/m² | - |
| 1777309736 | 10.56° C | 85% | 1017.8 hPa | 0 mm | - | 98 W/m² | - |
| 1777309433 | 10.56° C | 85% | 1017.9 hPa | 0 mm | - | 105 W/m² | - |
| 1777309130 | 10.56° C | 85% | 1018 hPa | 0 mm | - | 87 W/m² | - |
| 1777308828 | 10.56° C | 85% | 1017.9 hPa | 0 mm | - | 89 W/m² | - |
| 1777308523 | 10.56° C | 84% | 1017.9 hPa | 0 mm | - | 84 W/m² | - |
* Rain latest hour (hover to see other rain measurements)
** Current wind speed in m/s (hover to see current wind gust speed)